PUA1497 SACO-SUMU

Flight info

Callsign PUA1497
Flight time N/A
Altitude 7000
Route GENAS W6 PAR B555 NIMBO
Aircraft PA34/L-SDFGRY/S

Departure

Time 2026-05-04 10:33
Airport Ingeniero Aeronáutico Ambrosio L.V. Taravella International Airport (SACO)

Arrival

Time N/A
Airport Carrasco General Cesáreo L. Berisso International Airport (SUMU)
Time Latitude Longitude Altitude Speed Heading
2026-05-04 10:19 -31.31551 -64.21033 1587 ft 0 kts 141°
2026-05-04 10:19 -31.31551 -64.21032 1587 ft 0 kts 141°
2026-05-04 10:26 -31.31571 -64.21042 1588 ft 9 kts 261°
2026-05-04 10:26 -31.31481 -64.21064 1586 ft 21 kts 13°
2026-05-04 10:27 -31.31445 -64.20958 1588 ft 14 kts 105°
2026-05-04 10:27 -31.31411 -64.20864 1589 ft 16 kts 43°
2026-05-04 10:27 -31.31301 -64.20834 1589 ft 19 kts 359°
2026-05-04 10:27 -31.31159 -64.20836 1590 ft 22 kts 359°
2026-05-04 10:28 -31.30995 -64.20838 1590 ft 25 kts 359°
2026-05-04 10:28 -31.30816 -64.20840 1592 ft 27 kts 359°
2026-05-04 10:28 -31.30627 -64.20843 1596 ft 28 kts 359°
2026-05-04 10:28 -31.30430 -64.20840 1600 ft 29 kts 359°
2026-05-04 10:29 -31.30229 -64.20844 1605 ft 30 kts 359°
2026-05-04 10:29 -31.30015 -64.20846 1606 ft 31 kts 360°
2026-05-04 10:29 -31.29831 -64.20849 1608 ft 27 kts 354°
2026-05-04 10:29 -31.29671 -64.20883 1604 ft 18 kts 359°
2026-05-04 10:30 -31.29630 -64.20840 1602 ft 10 kts 197°
2026-05-04 10:30 -31.29693 -64.20848 1605 ft 10 kts 174°
2026-05-04 10:30 -31.29705 -64.20847 1602 ft 0 kts 175°
2026-05-04 10:32 -31.29911 -64.20836 1607 ft 64 kts 179°
2026-05-04 10:33 -31.30534 -64.20824 1640 ft 104 kts 180°
2026-05-04 10:33 -31.31279 -64.20815 1862 ft 109 kts 179°
2026-05-04 10:33 -31.32024 -64.20797 2110 ft 108 kts 179°
2026-05-04 10:33 -31.32741 -64.20561 2278 ft 112 kts 142°
2026-05-04 10:34 -31.33066 -64.19724 2374 ft 120 kts 107°
2026-05-04 10:34 -31.33431 -64.18817 2492 ft 127 kts 120°
2026-05-04 10:34 -31.33869 -64.17918 2652 ft 129 kts 119°
2026-05-04 10:34 -31.34328 -64.16874 2480 ft 153 kts 116°
2026-05-04 10:35 -31.34785 -64.15826 2810 ft 134 kts 117°
2026-05-04 10:35 -31.35190 -64.14918 3154 ft 121 kts 118°
2026-05-04 10:35 -31.35583 -64.14040 3324 ft 122 kts 118°
2026-05-04 10:35 -31.35970 -64.13172 3509 ft 121 kts 118°
2026-05-04 10:36 -31.36362 -64.12296 3687 ft 121 kts 118°
2026-05-04 10:36 -31.36753 -64.11422 3857 ft 122 kts 118°
2026-05-04 10:36 -31.37151 -64.10532 4022 ft 122 kts 118°
2026-05-04 10:36 -31.37538 -64.09666 4187 ft 122 kts 118°
2026-05-04 10:37 -31.37931 -64.08785 4348 ft 122 kts 118°
2026-05-04 10:37 -31.38325 -64.07905 4508 ft 122 kts 119°
2026-05-04 10:37 -31.38718 -64.07022 4662 ft 122 kts 119°
2026-05-04 10:37 -31.39114 -64.06138 4807 ft 123 kts 119°
2026-05-04 10:39 -31.39572 -64.00183 5612 ft 126 kts 90°
2026-05-04 10:39 -31.39559 -63.99156 5758 ft 126 kts 90°
2026-05-04 10:39 -31.39546 -63.98126 5899 ft 127 kts 90°
2026-05-04 10:40 -31.39533 -63.97089 6039 ft 127 kts 90°
2026-05-04 10:40 -31.39520 -63.96050 6176 ft 128 kts 90°
2026-05-04 10:40 -31.39507 -63.95020 6305 ft 129 kts 90°
2026-05-04 10:40 -31.39493 -63.93968 6420 ft 129 kts 90°
2026-05-04 10:41 -31.39479 -63.92911 6545 ft 130 kts 90°
2026-05-04 10:41 -31.39466 -63.91850 6662 ft 131 kts 90°
2026-05-04 10:41 -31.39452 -63.90782 6782 ft 132 kts 90°
2026-05-04 10:41 -31.39437 -63.89708 6895 ft 132 kts 90°
2026-05-04 10:42 -31.39423 -63.88626 7012 ft 133 kts 90°
2026-05-04 10:42 -31.39409 -63.87540 7126 ft 134 kts 90°
2026-05-04 10:42 -31.39394 -63.86446 7235 ft 135 kts 90°
2026-05-04 10:42 -31.39379 -63.85344 7347 ft 136 kts 90°
2026-05-04 10:43 -31.39364 -63.84237 7460 ft 136 kts 90°
2026-05-04 10:44 -31.39254 -63.76340 8202 ft 141 kts 90°
2026-05-04 10:45 -31.39237 -63.75186 8306 ft 142 kts 90°
2026-05-04 10:45 -31.39220 -63.74027 8409 ft 143 kts 89°
2026-05-04 10:45 -31.39204 -63.72862 8501 ft 143 kts 90°
2026-05-04 10:45 -31.39187 -63.71693 8594 ft 144 kts 90°
2026-05-04 10:46 -31.39169 -63.70517 8680 ft 145 kts 89°
2026-05-04 10:46 -31.39152 -63.69351 8764 ft 145 kts 89°
2026-05-04 10:46 -31.39135 -63.68167 8853 ft 145 kts 89°
2026-05-04 10:46 -31.39117 -63.66977 8897 ft 149 kts 89°
2026-05-04 10:47 -31.39098 -63.65739 8910 ft 155 kts 89°
2026-05-04 10:47 -31.39079 -63.64436 8906 ft 161 kts 89°
2026-05-04 10:47 -31.39070 -63.63132 8906 ft 164 kts 94°
2026-05-04 10:47 -31.39272 -63.61820 8907 ft 165 kts 103°
2026-05-04 10:49 -31.40765 -63.52240 8904 ft 173 kts 102°
2026-05-04 10:49 -31.40980 -63.50850 8909 ft 174 kts 102°
2026-05-04 10:50 -31.41196 -63.49460 8907 ft 174 kts 102°
2026-05-04 10:51 -31.42704 -63.39711 8908 ft 174 kts 102°
2026-05-04 10:52 -31.42919 -63.38313 8912 ft 174 kts 101°
2026-05-04 10:52 -31.43132 -63.36932 8902 ft 170 kts 101°
2026-05-04 10:52 -31.43342 -63.35570 8896 ft 170 kts 101°
2026-05-04 10:54 -31.44805 -63.26040 8898 ft 170 kts 101°
2026-05-04 10:54 -31.45013 -63.24682 8897 ft 170 kts 101°
2026-05-04 10:56 -31.46466 -63.15158 8897 ft 170 kts 101°
2026-05-04 10:56 -31.46669 -63.13794 8898 ft 170 kts 100°
2026-05-04 10:56 -31.46856 -63.12424 8898 ft 170 kts 100°
2026-05-04 10:57 -31.47044 -63.11055 8901 ft 170 kts 100°
2026-05-04 10:57 -31.47235 -63.09685 8900 ft 170 kts 100°
2026-05-04 10:57 -31.47426 -63.08315 8901 ft 171 kts 100°
2026-05-04 10:57 -31.47617 -63.06941 8902 ft 171 kts 100°
2026-05-04 10:58 -31.47808 -63.05564 8901 ft 171 kts 100°
2026-05-04 10:58 -31.47999 -63.04191 8907 ft 171 kts 100°
2026-05-04 10:58 -31.48187 -63.02833 8906 ft 171 kts 100°
2026-05-04 10:58 -31.48378 -63.01460 8904 ft 171 kts 100°
2026-05-04 10:59 -31.48571 -63.00067 8905 ft 171 kts 100°
2026-05-04 10:59 -31.48759 -62.98713 8908 ft 171 kts 100°
2026-05-04 10:59 -31.48948 -62.97336 8909 ft 171 kts 100°
2026-05-04 10:59 -31.49139 -62.95959 8908 ft 171 kts 100°
2026-05-04 11:00 -31.49330 -62.94580 8910 ft 171 kts 100°
2026-05-04 11:01 -31.50661 -62.84907 8913 ft 172 kts 99°
2026-05-04 11:02 -31.50851 -62.83523 8914 ft 172 kts 99°
2026-05-04 11:02 -31.51041 -62.82137 8913 ft 172 kts 100°
2026-05-04 11:05 -31.53617 -62.63228 8926 ft 172 kts 99°
2026-05-04 11:06 -31.53805 -62.61844 8923 ft 172 kts 99°
2026-05-04 11:06 -31.53992 -62.60457 8922 ft 172 kts 99°
2026-05-04 11:06 -31.54179 -62.59076 8921 ft 172 kts 99°
2026-05-04 11:06 -31.54367 -62.57688 8925 ft 172 kts 99°
2026-05-04 11:08 -31.55674 -62.47978 8932 ft 172 kts 99°
2026-05-04 11:10 -31.56963 -62.38345 8932 ft 170 kts 99°
2026-05-04 11:12 -31.58249 -62.28683 8943 ft 172 kts 99°
2026-05-04 11:12 -31.58433 -62.27297 8945 ft 172 kts 99°
2026-05-04 11:12 -31.58614 -62.25930 8943 ft 172 kts 99°
2026-05-04 11:12 -31.58798 -62.24544 8943 ft 172 kts 99°
2026-05-04 11:13 -31.58981 -62.23157 8946 ft 172 kts 99°
2026-05-04 11:13 -31.59164 -62.21773 8947 ft 172 kts 99°
2026-05-04 11:13 -31.59347 -62.20388 8947 ft 172 kts 99°
2026-05-04 11:13 -31.59530 -62.19003 8945 ft 172 kts 99°
2026-05-04 11:14 -31.59712 -62.17618 8950 ft 172 kts 99°
2026-05-04 11:14 -31.59895 -62.16234 8950 ft 172 kts 99°
2026-05-04 11:14 -31.60077 -62.14847 8950 ft 172 kts 99°
2026-05-04 11:16 -31.61351 -62.05137 8955 ft 172 kts 98°
2026-05-04 11:16 -31.61530 -62.03769 8954 ft 172 kts 98°
2026-05-04 11:16 -31.61713 -62.02367 8957 ft 172 kts 98°
2026-05-04 11:17 -31.61890 -62.01001 8956 ft 171 kts 98°
2026-05-04 11:17 -31.62071 -61.99616 8956 ft 171 kts 98°
2026-05-04 11:19 -31.63327 -61.89947 8951 ft 171 kts 98°
2026-05-04 11:19 -31.63506 -61.88564 8950 ft 171 kts 98°
2026-05-04 11:19 -31.63685 -61.87180 8948 ft 171 kts 98°
2026-05-04 11:19 -31.63863 -61.85800 8949 ft 171 kts 98°
2026-05-04 11:20 -31.64042 -61.84418 8947 ft 171 kts 98°
2026-05-04 11:20 -31.64220 -61.83037 8951 ft 171 kts 98°
2026-05-04 11:20 -31.64398 -61.81656 8952 ft 171 kts 98°
2026-05-04 11:20 -31.64576 -61.80278 8951 ft 171 kts 98°
2026-05-04 11:22 -31.65814 -61.70634 8951 ft 171 kts 98°
2026-05-04 11:22 -31.65990 -61.69258 8953 ft 171 kts 98°
2026-05-04 11:23 -31.66166 -61.67882 8954 ft 171 kts 98°
2026-05-04 11:23 -31.66341 -61.66503 8955 ft 171 kts 97°
2026-05-04 11:24 -31.67393 -61.58242 8955 ft 170 kts 98°
2026-05-04 11:25 -31.67568 -61.56866 8960 ft 170 kts 98°
2026-05-04 11:25 -31.67743 -61.55488 8959 ft 170 kts 97°
2026-05-04 11:25 -31.67917 -61.54111 8958 ft 170 kts 98°
2026-05-04 11:26 -31.68264 -61.51363 8958 ft 170 kts 98°
2026-05-04 11:27 -31.69476 -61.41740 8963 ft 170 kts 97°
2026-05-04 11:28 -31.69649 -61.40360 8962 ft 171 kts 97°
2026-05-04 11:28 -31.69819 -61.39002 8960 ft 170 kts 97°
2026-05-04 11:28 -31.69993 -61.37611 8960 ft 170 kts 97°
2026-05-04 11:28 -31.70164 -61.36253 8966 ft 170 kts 97°
2026-05-04 11:29 -31.70336 -61.34880 8964 ft 170 kts 98°
2026-05-04 11:29 -31.70508 -61.33506 8965 ft 170 kts 97°
2026-05-04 11:29 -31.70679 -61.32131 8970 ft 170 kts 97°
2026-05-04 11:29 -31.70851 -61.30754 8968 ft 170 kts 97°
2026-05-04 11:31 -31.72050 -61.21110 8975 ft 171 kts 97°
2026-05-04 11:33 -31.73245 -61.11426 8974 ft 171 kts 97°
2026-05-04 11:33 -31.73415 -61.10045 8972 ft 171 kts 97°
2026-05-04 11:33 -31.73586 -61.08662 8972 ft 171 kts 97°
2026-05-04 11:34 -31.73754 -61.07289 8972 ft 171 kts 97°
2026-05-04 11:34 -31.73924 -61.05905 8973 ft 171 kts 97°
2026-05-04 11:34 -31.74093 -61.04519 8974 ft 171 kts 97°
2026-05-04 11:34 -31.74265 -61.03114 8972 ft 171 kts 97°
2026-05-04 11:35 -31.74434 -61.01745 8975 ft 172 kts 97°
2026-05-04 11:35 -31.74604 -61.00356 8972 ft 172 kts 97°
2026-05-04 11:35 -31.74773 -60.98968 8972 ft 172 kts 97°
2026-05-04 11:35 -31.74942 -60.97578 8971 ft 172 kts 97°
2026-05-04 11:36 -31.75113 -60.96188 8969 ft 172 kts 97°
2026-05-04 11:36 -31.75283 -60.94794 8969 ft 172 kts 97°
2026-05-04 11:36 -31.75453 -60.93401 8970 ft 172 kts 97°
2026-05-04 11:36 -31.75622 -60.92010 8972 ft 173 kts 97°
2026-05-04 11:37 -31.75791 -60.90612 8969 ft 172 kts 97°
2026-05-04 11:37 -31.75959 -60.89222 8967 ft 172 kts 97°
2026-05-04 11:37 -31.76128 -60.87830 8968 ft 172 kts 97°
2026-05-04 11:37 -31.76297 -60.86438 8970 ft 172 kts 97°
2026-05-04 11:38 -31.76466 -60.85040 8969 ft 173 kts 97°
2026-05-04 11:38 -31.76634 -60.83646 8971 ft 172 kts 97°
2026-05-04 11:38 -31.76803 -60.82251 8974 ft 173 kts 97°
2026-05-04 11:38 -31.76972 -60.80854 8970 ft 172 kts 97°
2026-05-04 11:39 -31.77139 -60.79458 8969 ft 172 kts 96°
2026-05-04 11:39 -31.77307 -60.78066 8967 ft 172 kts 97°
2026-05-04 11:40 -31.78307 -60.69743 8966 ft 172 kts 96°
2026-05-04 11:41 -31.78473 -60.68352 8968 ft 172 kts 97°
2026-05-04 11:41 -31.78641 -60.66962 8974 ft 172 kts 97°
2026-05-04 11:41 -31.78808 -60.65568 8970 ft 172 kts 97°
2026-05-04 11:41 -31.78974 -60.64173 8989 ft 172 kts 96°
2026-05-04 11:42 -31.79140 -60.62780 8991 ft 172 kts 96°
2026-05-04 11:42 -31.79305 -60.61389 8993 ft 172 kts 96°
2026-05-04 11:42 -31.79471 -60.59992 8993 ft 172 kts 96°
2026-05-04 11:42 -31.79634 -60.58623 8993 ft 172 kts 96°
2026-05-04 11:43 -31.79799 -60.57234 8992 ft 172 kts 96°
2026-05-04 11:43 -31.79964 -60.55843 8995 ft 172 kts 96°
2026-05-04 11:43 -31.80130 -60.54449 8995 ft 172 kts 97°
2026-05-04 11:43 -31.80294 -60.53054 8996 ft 172 kts 96°
2026-05-04 11:44 -31.80459 -60.51660 8996 ft 172 kts 96°
2026-05-04 11:44 -31.80624 -60.50266 8992 ft 173 kts 96°
2026-05-04 11:44 -31.80798 -60.48867 8996 ft 173 kts 99°
2026-05-04 11:44 -31.81330 -60.47625 8988 ft 170 kts 129°
2026-05-04 11:45 -31.82081 -60.46548 8993 ft 171 kts 131°
2026-05-04 11:45 -31.82823 -60.45451 8994 ft 171 kts 129°
2026-05-04 11:45 -31.83554 -60.44343 8993 ft 172 kts 129°
2026-05-04 11:45 -31.84285 -60.43230 8994 ft 172 kts 129°
2026-05-04 11:46 -31.85018 -60.42119 8997 ft 171 kts 129°
2026-05-04 11:46 -31.85748 -60.41011 8998 ft 171 kts 129°
2026-05-04 11:46 -31.86479 -60.39900 8998 ft 172 kts 129°
2026-05-04 11:46 -31.87212 -60.38786 8995 ft 172 kts 129°
2026-05-04 11:47 -31.87936 -60.37684 8997 ft 172 kts 129°
2026-05-04 11:47 -31.88678 -60.36556 8998 ft 172 kts 129°
2026-05-04 11:47 -31.89402 -60.35454 8996 ft 172 kts 129°
2026-05-04 11:47 -31.90137 -60.34337 8997 ft 172 kts 129°
2026-05-04 11:48 -31.90871 -60.33221 8996 ft 172 kts 129°
2026-05-04 11:48 -31.91603 -60.32105 8995 ft 172 kts 129°
2026-05-04 11:48 -31.92338 -60.30987 8995 ft 173 kts 129°
2026-05-04 11:48 -31.93072 -60.29869 8996 ft 173 kts 129°
2026-05-04 11:49 -31.93809 -60.28747 8993 ft 173 kts 129°
2026-05-04 11:49 -31.94544 -60.27629 8998 ft 173 kts 129°
2026-05-04 11:49 -31.95277 -60.26510 8993 ft 172 kts 129°
2026-05-04 11:49 -31.96010 -60.25394 8996 ft 173 kts 129°
2026-05-04 11:50 -31.96745 -60.24271 8994 ft 173 kts 129°
2026-05-04 11:50 -31.97478 -60.23151 8995 ft 173 kts 129°
2026-05-04 11:50 -31.98214 -60.22027 8998 ft 173 kts 129°
2026-05-04 11:50 -31.98948 -60.20907 8995 ft 173 kts 129°
2026-05-04 11:51 -31.99682 -60.19786 9001 ft 173 kts 129°
2026-05-04 11:51 -32.00407 -60.18678 8999 ft 172 kts 129°
2026-05-04 11:51 -32.01140 -60.17560 9000 ft 172 kts 129°
2026-05-04 11:51 -32.01872 -60.16442 8997 ft 172 kts 129°
2026-05-04 11:52 -32.02602 -60.15325 8995 ft 172 kts 129°
2026-05-04 11:52 -32.03335 -60.14205 8997 ft 172 kts 129°
2026-05-04 11:52 -32.04063 -60.13089 8998 ft 172 kts 129°
2026-05-04 11:52 -32.04547 -60.12349 8994 ft 172 kts 129°
2026-05-04 11:53 -32.05278 -60.11232 8995 ft 172 kts 129°
2026-05-04 11:53 -32.06008 -60.10116 8997 ft 172 kts 129°
2026-05-04 11:53 -32.06735 -60.09000 8998 ft 172 kts 129°
2026-05-04 11:53 -32.07463 -60.07884 9001 ft 172 kts 129°
2026-05-04 11:55 -32.12562 -60.00067 8999 ft 172 kts 129°
2026-05-04 11:55 -32.13289 -59.98949 9000 ft 172 kts 129°
2026-05-04 11:56 -32.14019 -59.97830 9002 ft 172 kts 129°
2026-05-04 11:56 -32.14748 -59.96708 9003 ft 172 kts 129°
2026-05-04 11:56 -32.15478 -59.95587 9002 ft 172 kts 129°
2026-05-04 11:56 -32.16207 -59.94466 9005 ft 172 kts 129°
2026-05-04 11:57 -32.16937 -59.93343 9000 ft 173 kts 128°
2026-05-04 11:57 -32.17668 -59.92218 9000 ft 172 kts 128°
2026-05-04 11:57 -32.18395 -59.91098 9002 ft 172 kts 129°
2026-05-04 11:57 -32.19123 -59.89980 9003 ft 172 kts 128°
2026-05-04 11:58 -32.19850 -59.88859 9000 ft 172 kts 128°
2026-05-04 11:58 -32.20579 -59.87737 9003 ft 172 kts 128°
2026-05-04 11:58 -32.21295 -59.86633 9001 ft 172 kts 129°
2026-05-04 11:58 -32.22026 -59.85508 9002 ft 173 kts 129°
2026-05-04 11:59 -32.22758 -59.84380 9000 ft 172 kts 129°
2026-05-04 11:59 -32.23486 -59.83258 9002 ft 172 kts 128°
2026-05-04 11:59 -32.24214 -59.82135 9002 ft 172 kts 128°
2026-05-04 11:59 -32.24938 -59.81016 8999 ft 172 kts 128°
2026-05-04 12:00 -32.25666 -59.79895 8999 ft 172 kts 128°
2026-05-04 12:00 -32.26393 -59.78771 9005 ft 172 kts 128°
2026-05-04 12:00 -32.27120 -59.77649 9001 ft 172 kts 128°
2026-05-04 12:00 -32.27847 -59.76526 9005 ft 172 kts 128°
2026-05-04 12:01 -32.28574 -59.75402 9002 ft 172 kts 128°
2026-05-04 12:01 -32.29300 -59.74281 9006 ft 172 kts 128°
2026-05-04 12:02 -32.33653 -59.67548 8996 ft 172 kts 128°
2026-05-04 12:03 -32.34377 -59.66426 8996 ft 172 kts 128°
2026-05-04 12:03 -32.35104 -59.65301 9001 ft 172 kts 128°
2026-05-04 12:03 -32.35829 -59.64177 8996 ft 172 kts 128°
2026-05-04 12:03 -32.36552 -59.63055 9003 ft 172 kts 128°
2026-05-04 12:04 -32.37277 -59.61930 9006 ft 172 kts 128°
2026-05-04 12:04 -32.38002 -59.60799 9001 ft 173 kts 128°
2026-05-04 12:04 -32.38717 -59.59683 9000 ft 172 kts 128°
2026-05-04 12:04 -32.39443 -59.58553 8999 ft 172 kts 128°
2026-05-04 12:05 -32.40166 -59.57426 9004 ft 172 kts 128°
2026-05-04 12:05 -32.40890 -59.56296 9007 ft 172 kts 128°
2026-05-04 12:05 -32.41613 -59.55168 9007 ft 172 kts 128°
2026-05-04 12:05 -32.42337 -59.54038 9005 ft 172 kts 128°
2026-05-04 12:06 -32.43061 -59.52909 9006 ft 172 kts 128°
2026-05-04 12:06 -32.43785 -59.51779 9011 ft 172 kts 128°
2026-05-04 12:06 -32.44508 -59.50648 9008 ft 172 kts 128°
2026-05-04 12:06 -32.45230 -59.49521 9011 ft 172 kts 128°
2026-05-04 12:07 -32.45953 -59.48393 9008 ft 172 kts 128°
2026-05-04 12:07 -32.46673 -59.47267 9009 ft 172 kts 128°
2026-05-04 12:07 -32.47385 -59.46154 9010 ft 172 kts 128°
2026-05-04 12:07 -32.48108 -59.45024 9013 ft 172 kts 128°
2026-05-04 12:08 -32.48831 -59.43892 9011 ft 172 kts 128°
2026-05-04 12:08 -32.49564 -59.42745 9010 ft 172 kts 128°
2026-05-04 12:08 -32.50279 -59.41627 9016 ft 172 kts 128°
2026-05-04 12:08 -32.51003 -59.40493 9010 ft 172 kts 128°
2026-05-04 12:09 -32.51724 -59.39364 9012 ft 172 kts 128°
2026-05-04 12:09 -32.52446 -59.38231 9016 ft 172 kts 128°
2026-05-04 12:09 -32.53171 -59.37096 9012 ft 173 kts 128°
2026-05-04 12:09 -32.53895 -59.35959 9016 ft 173 kts 128°
2026-05-04 12:10 -32.54621 -59.34822 9011 ft 173 kts 128°
2026-05-04 12:10 -32.55347 -59.33683 9014 ft 173 kts 128°
2026-05-04 12:10 -32.56070 -59.32548 9016 ft 172 kts 128°
2026-05-04 12:10 -32.56791 -59.31417 9015 ft 172 kts 128°
2026-05-04 12:11 -32.57512 -59.30285 9007 ft 172 kts 128°
2026-05-04 12:11 -32.58233 -59.29155 9012 ft 171 kts 128°
2026-05-04 12:11 -32.58953 -59.28023 9012 ft 172 kts 128°
2026-05-04 12:11 -32.59672 -59.26894 9013 ft 171 kts 128°
2026-05-04 12:12 -32.60388 -59.25769 9009 ft 171 kts 128°
2026-05-04 12:12 -32.61103 -59.24645 9011 ft 171 kts 128°
2026-05-04 12:12 -32.61819 -59.23518 9014 ft 171 kts 128°
2026-05-04 12:12 -32.62525 -59.22407 9011 ft 171 kts 128°
2026-05-04 12:13 -32.63247 -59.21271 9011 ft 170 kts 128°
2026-05-04 12:14 -32.68249 -59.13393 9016 ft 171 kts 128°
2026-05-04 12:15 -32.68966 -59.12262 9015 ft 171 kts 128°
2026-05-04 12:15 -32.69684 -59.11129 9016 ft 172 kts 128°
2026-05-04 12:15 -32.70405 -59.09989 9018 ft 172 kts 128°
2026-05-04 12:15 -32.71123 -59.08854 9016 ft 172 kts 128°
2026-05-04 12:16 -32.71843 -59.07717 9014 ft 172 kts 128°
2026-05-04 12:16 -32.72553 -59.06594 9015 ft 172 kts 128°
2026-05-04 12:16 -32.73271 -59.05460 9015 ft 172 kts 128°
2026-05-04 12:16 -32.73988 -59.04328 9014 ft 172 kts 128°
2026-05-04 12:17 -32.74707 -59.03191 9015 ft 171 kts 128°
2026-05-04 12:17 -32.75425 -59.02055 9014 ft 172 kts 128°
2026-05-04 12:17 -32.76143 -59.00921 9013 ft 171 kts 128°
2026-05-04 12:17 -32.76857 -58.99789 9015 ft 171 kts 128°
2026-05-04 12:18 -32.77574 -58.98657 9012 ft 171 kts 128°
2026-05-04 12:18 -32.78279 -58.97537 9014 ft 171 kts 128°
2026-05-04 12:18 -32.78937 -58.96495 9016 ft 171 kts 128°
2026-05-04 12:18 -32.79653 -58.95361 9015 ft 171 kts 128°
2026-05-04 12:19 -32.80369 -58.94227 9018 ft 172 kts 128°
2026-05-04 12:19 -32.81075 -58.93106 9016 ft 172 kts 128°
2026-05-04 12:19 -32.81790 -58.91972 9019 ft 172 kts 128°
2026-05-04 12:19 -32.82516 -58.90821 9020 ft 172 kts 128°
2026-05-04 12:20 -32.83224 -58.89697 9023 ft 172 kts 128°
2026-05-04 12:20 -32.83941 -58.88560 9018 ft 171 kts 128°
2026-05-04 12:20 -32.84656 -58.87422 9020 ft 171 kts 128°
2026-05-04 12:20 -32.85372 -58.86286 9016 ft 171 kts 128°
2026-05-04 12:21 -32.86085 -58.85153 9024 ft 171 kts 128°
2026-05-04 12:21 -32.86789 -58.84035 9021 ft 171 kts 128°
2026-05-04 12:21 -32.87504 -58.82898 9020 ft 171 kts 128°
2026-05-04 12:21 -32.88219 -58.81762 9022 ft 172 kts 128°
2026-05-04 12:22 -32.88934 -58.80622 9021 ft 172 kts 128°
2026-05-04 12:22 -32.89651 -58.79482 9021 ft 172 kts 128°
2026-05-04 12:22 -32.90366 -58.78343 9024 ft 172 kts 128°
2026-05-04 12:22 -32.91082 -58.77206 9023 ft 172 kts 128°
2026-05-04 12:23 -32.91796 -58.76067 9025 ft 172 kts 128°
2026-05-04 12:23 -32.92513 -58.74925 9025 ft 172 kts 128°
2026-05-04 12:23 -32.93230 -58.73781 9027 ft 172 kts 128°
2026-05-04 12:23 -32.93948 -58.72637 9028 ft 172 kts 128°
2026-05-04 12:24 -32.94665 -58.71494 9026 ft 173 kts 128°
2026-05-04 12:24 -32.95374 -58.70364 9029 ft 172 kts 128°
2026-05-04 12:24 -32.96098 -58.69208 9028 ft 172 kts 128°
2026-05-04 12:24 -32.96806 -58.68081 9029 ft 173 kts 128°
2026-05-04 12:25 -32.97523 -58.66933 9029 ft 172 kts 128°
2026-05-04 12:25 -32.98240 -58.65789 9032 ft 173 kts 128°
2026-05-04 12:25 -32.98958 -58.64642 9028 ft 172 kts 128°
2026-05-04 12:25 -32.99675 -58.63496 9028 ft 173 kts 128°
2026-05-04 12:26 -33.00396 -58.62339 9034 ft 173 kts 128°
2026-05-04 12:26 -33.01129 -58.61207 9029 ft 172 kts 134°
2026-05-04 12:26 -33.01930 -58.60147 9027 ft 172 kts 132°